TimeAEST,TemperatureF,Dew PointF,Humidity,Sea Level PressureIn,VisibilityMPH,Wind Direction,Wind SpeedMPH,Gust SpeedMPH,PrecipitationIn,Events,Conditions,WindDirDegrees,DateUTC
12:00 AM,67,58,67,30.07,,SE,11.5,,,,,140,2013-06-20 14:00:00
12:00 AM,66.2,59.0,78,30.06,-9999.0,SE,11.5,-,N/A,,Unknown,140,2013-06-20 14:00:00
12:30 AM,66.2,59.0,78,30.04,-9999.0,SSE,12.7,-,N/A,,Unknown,150,2013-06-20 14:30:00
1:00 AM,66.2,60.8,83,30.06,-9999.0,South,12.7,-,N/A,,Unknown,170,2013-06-20 15:00:00
1:30 AM,66.2,60.8,83,30.04,-9999.0,SSE,11.5,-,N/A,,Unknown,160,2013-06-20 15:30:00
2:00 AM,66.2,59.0,78,30.04,-9999.0,SSE,11.5,-,N/A,,Unknown,160,2013-06-20 16:00:00
2:30 AM,66.2,60.8,83,30.04,-9999.0,SSE,11.5,-,N/A,,Unknown,160,2013-06-20 16:30:00
3:00 AM,66,60,74,30.04,,SSE,13.8,,,,,150,2013-06-20 17:00:00
3:00 AM,66.2,59.0,78,30.04,-9999.0,SSE,13.8,-,N/A,,Unknown,150,2013-06-20 17:00:00
3:30 AM,66.2,60.8,83,30.04,-9999.0,South,12.7,-,N/A,,Unknown,170,2013-06-20 17:30:00
4:00 AM,66.2,60.8,83,30.04,-9999.0,South,13.8,-,N/A,,Unknown,170,2013-06-20 18:00:00
4:30 AM,64.4,59.0,83,30.04,-9999.0,South,12.7,-,N/A,,Unknown,180,2013-06-20 18:30:00
5:00 AM,66.2,59.0,78,30.04,-9999.0,South,11.5,-,N/A,,Unknown,170,2013-06-20 19:00:00
5:30 AM,66.2,59.0,78,30.04,-9999.0,SE,12.7,-,N/A,,Unknown,140,2013-06-20 19:30:00
6:00 AM,65,59,74,30.07,,South,13.8,,,,,180,2013-06-20 20:00:00
6:00 AM,66.2,59.0,78,30.06,-9999.0,South,13.8,-,N/A,,Unknown,180,2013-06-20 20:00:00
6:30 AM,66.2,57.2,73,30.06,-9999.0,SSE,12.7,-,N/A,,Unknown,150,2013-06-20 20:30:00
7:00 AM,66.2,57.2,73,30.06,-9999.0,SSE,13.8,-,N/A,,Unknown,150,2013-06-20 21:00:00
7:30 AM,66.2,57.2,73,30.06,-9999.0,SSE,12.7,-,N/A,,Unknown,150,2013-06-20 21:30:00
8:00 AM,66.2,59.0,78,30.09,-9999.0,SSE,12.7,-,N/A,,Unknown,150,2013-06-20 22:00:00
8:30 AM,66.2,57.2,73,30.09,-9999.0,SE,12.7,-,N/A,,Unknown,140,2013-06-20 22:30:00
9:00 AM,66,57,64,30.12,,South,11.5,,,,,170,2013-06-20 23:00:00
9:00 AM,66.2,57.2,73,30.09,-9999.0,South,11.5,-,N/A,,Unknown,170,2013-06-20 23:00:00
9:30 AM,66.2,57.2,73,30.09,-9999.0,South,10.4,-,N/A,,Unknown,170,2013-06-20 23:30:00
10:00 AM,66.2,57.2,73,30.09,-9999.0,SSE,12.7,-,N/A,,Unknown,150,2013-06-21 00:00:00
10:30 AM,66.2,57.2,73,30.09,-9999.0,SSE,12.7,-,N/A,,Unknown,150,2013-06-21 00:30:00
11:00 AM,66.2,55.4,68,30.06,-9999.0,SSE,13.8,-,N/A,,Unknown,150,2013-06-21 01:00:00
11:30 AM,68.0,55.4,64,30.06,-9999.0,SE,11.5,-,N/A,,Unknown,130,2013-06-21 01:30:00
12:00 PM,67,56,59,30.04,,East,12.7,,,,,100,2013-06-21 02:00:00
12:00 PM,66.2,55.4,68,30.04,-9999.0,East,12.7,-,N/A,,Unknown,100,2013-06-21 02:00:00
12:30 PM,68.0,57.2,68,30.01,-9999.0,ESE,10.4,-,N/A,,Unknown,110,2013-06-21 02:30:00
1:00 PM,68.0,55.4,64,29.98,-9999.0,ESE,12.7,-,N/A,,Unknown,120,2013-06-21 03:00:00
1:30 PM,68.0,57.2,68,29.98,-9999.0,SE,11.5,-,N/A,,Unknown,130,2013-06-21 03:30:00
2:00 PM,66.2,59.0,78,30.01,-9999.0,SSE,10.4,-,N/A,,Unknown,150,2013-06-21 04:00:00
2:30 PM,66.2,57.2,73,29.98,-9999.0,SSE,12.7,-,N/A,,Unknown,150,2013-06-21 04:30:00
3:00 PM,66,58,68,30.02,,South,17.3,,,,,180,2013-06-21 05:00:00
3:00 PM,66.2,57.2,73,30.01,-9999.0,South,17.3,-,N/A,,Unknown,180,2013-06-21 05:00:00
3:30 PM,64.4,55.4,73,30.01,-9999.0,South,16.1,-,N/A,,Unknown,170,2013-06-21 05:30:00
4:00 PM,64.4,55.4,73,30.04,-9999.0,South,18.4,-,N/A,,Unknown,180,2013-06-21 06:00:00
4:30 PM,64.4,55.4,73,30.04,-9999.0,South,16.1,-,N/A,,Unknown,170,2013-06-21 06:30:00
5:00 PM,66.2,53.6,64,30.04,-9999.0,SSE,13.8,-,N/A,,Unknown,150,2013-06-21 07:00:00
5:30 PM,66.2,48.2,52,30.04,-9999.0,SSE,15.0,-,N/A,,Unknown,150,2013-06-21 07:30:00
6:00 PM,65,49,45,30.04,,ESE,16.1,,,,,120,2013-06-21 08:00:00
6:00 PM,66.2,48.2,52,30.04,-9999.0,ESE,16.1,-,N/A,,Unknown,120,2013-06-21 08:00:00
6:30 PM,66.2,53.6,64,30.06,-9999.0,SE,13.8,-,N/A,,Unknown,140,2013-06-21 08:30:00
7:00 PM,66.2,53.6,64,30.06,-9999.0,SE,15.0,-,N/A,,Unknown,140,2013-06-21 09:00:00
7:30 PM,66.2,55.4,68,30.06,-9999.0,SSE,16.1,-,N/A,,Unknown,150,2013-06-21 09:30:00
8:00 PM,66.2,55.4,68,30.06,-9999.0,SSE,15.0,-,N/A,,Unknown,150,2013-06-21 10:00:00
8:30 PM,66.2,55.4,68,30.09,-9999.0,SE,15.0,-,N/A,,Unknown,140,2013-06-21 10:30:00
9:00 PM,66,56,62,30.10,,SE,16.1,,,,,140,2013-06-21 11:00:00
9:00 PM,66.2,55.4,68,30.09,-9999.0,SE,16.1,-,N/A,,Unknown,140,2013-06-21 11:00:00
9:30 PM,66.2,57.2,73,30.09,-9999.0,SE,16.1,-,N/A,,Unknown,140,2013-06-21 11:30:00
10:00 PM,66.2,57.2,73,30.09,-9999.0,SE,15.0,-,N/A,,Unknown,140,2013-06-21 12:00:00
10:30 PM,66.2,59.0,78,30.09,-9999.0,SE,13.8,-,N/A,,Unknown,140,2013-06-21 12:30:00
11:00 PM,64.4,57.2,77,30.09,-9999.0,SSE,13.8,-,N/A,,Unknown,150,2013-06-21 13:00:00
11:30 PM,64.4,59.0,83,30.09,-9999.0,SSE,12.7,-,N/A,,Unknown,150,2013-06-21 13:30:00